TimeAKDT,TemperatureF,Dew PointF,Humidity,Sea Level PressureIn,VisibilityMPH,Wind Direction,Wind SpeedMPH,Gust SpeedMPH,PrecipitationIn,Events,Conditions,WindDirDegrees,DateUTC
12:53 AM,-18.9,-29.9,57,30.27,10.0,Calm,Calm,-,N/A,,Clear,0,2013-03-16 08:53:00
1:53 AM,-20.0,-29.9,60,30.27,10.0,Calm,Calm,-,N/A,,Clear,0,2013-03-16 09:53:00
2:53 AM,-20.9,-29.9,63,30.27,10.0,Calm,Calm,-,N/A,,Clear,0,2013-03-16 10:53:00
3:53 AM,-22.0,-31.0,63,30.27,10.0,Calm,Calm,-,N/A,,Clear,0,2013-03-16 11:53:00
4:53 AM,-24.0,-32.1,66,30.28,10.0,Calm,Calm,-,N/A,,Clear,0,2013-03-16 12:53:00
5:53 AM,-25.1,-33.0,66,30.29,10.0,SW,3.5,-,N/A,,Clear,220,2013-03-16 13:53:00
6:53 AM,-27.9,-35.0,69,30.30,10.0,Calm,Calm,-,N/A,,Clear,0,2013-03-16 14:53:00
7:53 AM,-27.9,-35.0,69,30.31,10.0,Calm,Calm,-,N/A,,Clear,0,2013-03-16 15:53:00
8:53 AM,-23.1,-32.1,63,30.32,10.0,Calm,Calm,-,N/A,,Clear,0,2013-03-16 16:53:00
9:53 AM,-14.1,-25.1,58,30.32,10.0,Calm,Calm,-,N/A,,Clear,0,2013-03-16 17:53:00
10:53 AM,-9.0,-23.1,50,30.31,10.0,Calm,Calm,-,N/A,,Clear,0,2013-03-16 18:53:00
11:53 AM,-0.0,-18.9,41,30.30,10.0,Calm,Calm,-,N/A,,Clear,0,2013-03-16 19:53:00
12:53 PM,5.0,-18.0,34,30.28,10.0,ENE,4.6,-,N/A,,Clear,70,2013-03-16 20:53:00
1:53 PM,9.0,-16.1,31,30.27,10.0,NE,4.6,-,N/A,,Clear,50,2013-03-16 21:53:00
2:53 PM,12.0,-16.1,27,30.27,10.0,NE,3.5,-,N/A,,Clear,40,2013-03-16 22:53:00
3:53 PM,12.9,-15.0,28,30.25,10.0,Calm,Calm,-,N/A,,Clear,0,2013-03-16 23:53:00
4:53 PM,14.0,-14.1,28,30.24,10.0,Calm,Calm,-,N/A,,Clear,0,2013-03-17 00:53:00
5:53 PM,12.9,-15.0,28,30.25,10.0,Calm,Calm,-,N/A,,Clear,0,2013-03-17 01:53:00
6:53 PM,10.9,-16.1,29,30.25,10.0,Calm,Calm,-,N/A,,Clear,0,2013-03-17 02:53:00
7:53 PM,-2.0,-18.9,45,30.27,10.0,South,5.8,-,N/A,,Clear,170,2013-03-17 03:53:00
8:53 PM,-7.1,-20.9,51,30.28,10.0,Calm,Calm,-,N/A,,Clear,0,2013-03-17 04:53:00
9:53 PM,-11.0,-24.0,53,30.29,10.0,Calm,Calm,-,N/A,,Clear,0,2013-03-17 05:53:00
10:53 PM,-14.1,-25.1,58,30.29,10.0,Calm,Calm,-,N/A,,Clear,0,2013-03-17 06:53:00
11:53 PM,-17.0,-26.0,64,30.30,10.0,Calm,Calm,-,N/A,,Clear,0,2013-03-17 07:53:00